Weather History for EGLL - April, 2013

Change the Weather History Date:

Saturday, April 6, 2013

  Actual Average Record
Temperature  
Mean Temperature 42 °F -  
Max Temperature 51 °F 57 °F 73 °F (2011)
Min Temperature 32 °F 42 °F 32 °F (2006)
Degree Days  
Heating Degree Days 24    
Moisture  
Dew Point 27 °F    
Average Humidity 60    
Maximum Humidity 93    
Minimum Humidity 22    
Precipitation  
Precipitation 0.00 in - - ()
Sea Level Pressure  
Sea Level Pressure 30.22 in    
Wind  
Wind Speed 6 mph ()    
Max Wind Speed 13 mph    
Max Gust Speed -    
Visibility 8.5 miles    
Events      
Averages and records for this station are not official NWS values.
T = Trace of Precipitation, MM = Missing Value Source: Averaged Metar Reports

Daily Weather History Graph

Daily Weather History Graph

Search for Another Location

Airport or City:

Trip Planner

Search our weather history database for the weather conditions in past years. The results will help you decide how hot, cold, wet, or windy it might be!

Date:

Astronomy

Apr. 06, 2013 Rise Set
Actual Time 6:25 AM BST 7:43 PM BST
Civil Twilight 5:51 AM BST 8:18 PM BST
Nautical Twilight 5:09 AM BST 9:00 PM BST
Astronomical Twilight 4:24 AM BST 9:45 PM BST
Moon 4:27 AM BST (4/6) 3:32 PM BST (4/6)
Length of Visible Light 14h 26m
Length of Day
13h 17m
Waning Crescent, 17% of the Moon is Illuminated
Apr 6
Waning Crescent
Apr 10
New
Apr 18
First Quarter
Apr 25
Full
May 2
Last Quarter

Hourly Weather History & Observations

Time (BST) Temp. Windchill Dew Point Humidity Pressure Visibility Wind Dir Wind Speed Gust Speed Precip Events Conditions
12:20 AM 35.6 °F 30.7 °F 30.2 °F 81% 30.12 in 6.2 mi NNE 5.8 mph - N/A   Partly Cloudy
12:50 AM 36 °F - 31 °F 77% 30.15 in 11 mi North 8.1 mph - -  
12:50 AM 35.6 °F 29.9 °F 30.2 °F 81% 30.12 in 6.2 mi NNE 6.9 mph - N/A   Partly Cloudy
1:20 AM 35.6 °F 28.6 °F 32.0 °F 87% 30.15 in 6.2 mi NNE 9.2 mph - N/A   Unknown
1:50 AM 35.6 °F 29.2 °F 30.2 °F 81% 30.15 in 6.2 mi North 8.1 mph - N/A   Unknown
2:20 AM 35.6 °F 29.9 °F 30.2 °F 81% 30.15 in 6.2 mi North 6.9 mph - N/A   Unknown
2:50 AM 33.8 °F 27.7 °F 32.0 °F 93% 30.15 in 6.2 mi NNE 6.9 mph - N/A   Partly Cloudy
3:20 AM 33.8 °F 27.7 °F 30.2 °F 87% 30.15 in - NNE 6.9 mph - N/A   Clear
3:50 AM 34 °F - 30 °F 80% 30.17 in 11 mi North 6.9 mph - -  
3:50 AM 33.8 °F 28.6 °F 30.2 °F 87% 30.15 in - NNE 5.8 mph - N/A   Clear
4:20 AM 32.0 °F 27.5 °F 30.2 °F 93% 30.15 in - North 4.6 mph - N/A   Clear
4:50 AM 32.0 °F 26.4 °F 28.4 °F 87% 30.18 in - North 5.8 mph - N/A   Clear
5:20 AM 32.0 °F 26.4 °F 28.4 °F 87% 30.18 in - North 5.8 mph - N/A   Clear
5:50 AM 32.0 °F 26.4 °F 28.4 °F 87% 30.18 in - North 5.8 mph - N/A   Clear
6:20 AM 32.0 °F 26.4 °F 28.4 °F 87% 30.18 in - North 5.8 mph - N/A   Clear
6:50 AM 33 °F - 29 °F 78% 30.22 in 12 mi North 5.8 mph - -  
6:50 AM 32.0 °F 26.4 °F 28.4 °F 87% 30.21 in 6.2 mi North 5.8 mph - N/A   Partly Cloudy
7:20 AM 32.0 °F 26.4 °F 28.4 °F 87% 30.21 in 6.2 mi North 5.8 mph - N/A   Partly Cloudy
7:50 AM 33.8 °F 28.6 °F 30.2 °F 87% 30.21 in 6.2 mi North 5.8 mph - N/A   Scattered Clouds
8:20 AM 35.6 °F 30.7 °F 30.2 °F 81% 30.21 in 6.2 mi North 5.8 mph - N/A   Partly Cloudy
8:50 AM 37.4 °F 32.8 °F 30.2 °F 75% 30.24 in 6.2 mi NNE 5.8 mph - N/A   Partly Cloudy
9:20 AM 39.2 °F 33.6 °F 30.2 °F 70% 30.24 in 6.2 mi NNE 8.1 mph - N/A   Scattered Clouds
9:50 AM 40 °F - 29 °F 53% 30.25 in 16 mi NE 12.7 mph - -   Scattered Clouds
9:50 AM 39.2 °F 32.0 °F 28.4 °F 65% 30.24 in 6.2 mi NE 11.5 mph - N/A   Scattered Clouds
10:20 AM 42.8 °F 37.5 °F 28.4 °F 57% 30.24 in 6.2 mi NNE 9.2 mph - N/A   Scattered Clouds
10:50 AM 44.6 °F 38.8 °F 28.4 °F 53% 30.24 in 6.2 mi NNE 11.5 mph - N/A   Mostly Cloudy
11:20 AM 44.6 °F 39.2 °F 28.4 °F 53% 30.24 in 6.2 mi ENE 10.4 mph - N/A   Mostly Cloudy
11:50 AM 44.6 °F 40.2 °F 28.4 °F 53% 30.24 in 6.2 mi NNE 8.1 mph - N/A   Mostly Cloudy
12:20 PM 44.6 °F 39.7 °F 26.6 °F 49% 30.24 in 6.2 mi ENE 9.2 mph - N/A   Scattered Clouds
12:50 PM 45 °F - 25 °F 32% 30.27 in 18 mi NNE 8.1 mph - -   Mostly Cloudy
12:50 PM 46.4 °F 42.4 °F 26.6 °F 46% 30.27 in 6.2 mi ENE 8.1 mph - N/A   Scattered Clouds
1:20 PM 46.4 °F 43.5 °F 24.8 °F 43% 30.27 in 6.2 mi NE 5.8 mph - N/A   Scattered Clouds
1:50 PM 48.2 °F - 26.6 °F 43% 30.27 in 6.2 mi NE 5.8 mph - N/A   Mostly Cloudy
2:20 PM 48.2 °F - 26.6 °F 43% 30.27 in 6.2 mi ENE 5.8 mph - N/A   Scattered Clouds
2:50 PM 48.2 °F - 24.8 °F 40% 30.24 in - Variable 4.6 mph - N/A   Clear
3:20 PM 50.0 °F - 24.8 °F 37% 30.24 in - North 8.1 mph - N/A   Clear
3:50 PM 49 °F - 22 °F 22% 30.25 in 19 mi NNE 8.1 mph - -   Scattered Clouds
3:50 PM 50.0 °F - 24.8 °F 37% 30.24 in - Variable 6.9 mph - N/A   Clear
4:20 PM 50.0 °F - 23.0 °F 35% 30.24 in - NE 4.6 mph - N/A   Clear
4:50 PM 50.0 °F - 23.0 °F 35% 30.21 in - NE 8.1 mph - N/A   Clear
5:20 PM 50.0 °F - 23.0 °F 35% 30.24 in - Variable 4.6 mph - N/A   Clear
5:50 PM 50.0 °F - 23.0 °F 35% 30.24 in - ENE 5.8 mph - N/A   Clear
6:20 PM 48.2 °F - 23.0 °F 37% 30.21 in - ENE 6.9 mph - N/A   Clear
6:50 PM 49 °F - 23 °F 24% 30.24 in 19 mi NE 5.8 mph - -  
6:50 PM 48.2 °F - 23.0 °F 37% 30.21 in - ENE 5.8 mph - N/A   Clear
7:20 PM 48.2 °F - 23.0 °F 37% 30.24 in - NNE 4.6 mph - N/A   Clear
7:50 PM 46.4 °F 44.3 °F 23.0 °F 40% 30.24 in - NE 4.6 mph - N/A   Clear
8:20 PM 46.4 °F 44.3 °F 23.0 °F 40% 30.24 in - NE 4.6 mph - N/A   Clear
8:50 PM 41.0 °F 36.4 °F 24.8 °F 53% 30.27 in - East 6.9 mph - N/A   Clear
9:20 PM 39.2 °F 33.6 °F 24.8 °F 56% 30.27 in - East 8.1 mph - N/A   Clear
9:50 PM 42 °F - 26 °F 41% 30.30 in 14 mi East 4.6 mph - -  
9:50 PM 39.2 °F 34.2 °F 26.6 °F 61% 30.27 in - East 6.9 mph - N/A   Clear
10:20 PM 39.2 °F 33.6 °F 24.8 °F 56% 30.30 in - East 8.1 mph - N/A   Clear
10:50 PM 35.6 °F 29.2 °F 24.8 °F 65% 30.30 in - East 8.1 mph - N/A   Clear
11:20 PM 35.6 °F 29.2 °F 24.8 °F 65% 30.30 in - ESE 8.1 mph - N/A   Clear
11:50 PM 35.6 °F 29.2 °F 24.8 °F 65% 30.30 in - ESE 8.1 mph - N/A   Clear